International Virtual Aviation Organisation

Russian Federation and Kazakhstan MCD

 

Карточка аэропорта UNBB

Внимание!
Информация на этой странице в стадии наполнения.
Если вы не увидели какой-то информации, или заметили неточность - пожалуйста сообщите нам!
Спасибо!
Команда RU-STAFF
Название аэропортаМихайловка
Название аэропорта (англ.)Mikhaylovka
Превышение837 ft. (255.1 m.)
Координаты53°21.798', 83°32.382'
Высота перехода700m
Эшелон переходаFL050
Коды ответчика5301-5317
Зона ОрВДНовосибирск РПИ (UNNT)
Данные METARUNBB 242300Z 26004MPS CAVOK M03/M04 Q1021 R24/CLRD60 NOSIG RMK QFE743
Проноз погоды (TAF)UNBB 242000Z 2421/2521 28003MPS 4000 BR SCT020 TEMPO 2421/2506 0300 FZFG SCT002 BKN011 BECMG 2506/2507 9999 NSW
NOTAMshow/hide NOTAM
AWOS   TABLE

Информация о ВПП

ВПП Длина ВПП (м.) Покрытие Курс ВПП Частота ILS
062853Асфальтобетон59 
242853Асфальтобетон239108.7

Диспетчерские позиции




Спутниковое изображение